Погода в Нижних Сергах

Россия / Свердловская область     56°39′30″N   59°18′04″E
темп.,
°C
ветер,
м/с
пор.,
м/с
влажн.,
%
обл.,
%
осадки,
мм/ч
давл.,
гПа
погр.,
м
11 мая, вт
вт1123:00+11юв26565 0.0 1025108
02:00+9ююв22574 0.0 102611
05:00+8ююв11558 0.0 102710
08:00+13ю1343100 0.0 1027180
11:00+18ююв2228100 0.0 1027745
14:00+22всв0125100 0.0 10261504
17:00+21зсз1228100 0.0 10261744
20:00+17зсз11460 0.0 102711
12 мая, ср
ср1223:00+13з11545 0.0 102810
02:00+11сз116625 0.0 102910
05:00+10с118727 0.0 102910
08:00+16ссз126740 0.0 1029288
11:00+20сз24487 0.0 10291127
14:00+23сз35345 0.0 10282075
17:00+23сз342736 0.0 10271937
20:00+18сз224365 0.0 102834
13 мая, чт
чт1323:00+13сз1155100 0.0 102910
02:00+12зсз1164100 0.0 102910
05:00+11зсз117026 0.0 102910
08:00+17зсз12535 0.0 1029242
11:00+22сз233734 0.0 10281224
14:00+24сз333053 0.0 10271833
17:00+25сз333058 0.0 10261978
20:00+20зсз22495 0.0 102611
14 мая, пт
пт1423:00+15зсз11630 0.0 102711
02:00+14з11680 0.0 102711
05:00+13юз11702 0.0 102810
08:00+19зюз13505 0.0 1027241
11:00+24зюз35355 0.0 10262002
14:00+26з46281 0.0 10252394
17:00+26зюз56285 0.0 10242662
20:00+21з26425 0.0 1024136
15 мая, сб
сб1523:00+16юз22575 0.0 102412
02:00+14юз226487 0.0 102423
05:00+13ююз237036 0.0 102555
08:00+19юз375246 0.0 1024286
11:00+25зюз473528 0.0 10231339
14:00+27зюз57289 0.0 10212325
17:00+27з572539 0.0 10212330
20:00+22з264524 0.0 1021142